Location: Unspecified
(49.2170°N, 0.0000°E)
Time: 18:26:04
(UTC+00:00)

A-11 Canister half - Pass Details

Date: 23 June 2019
Orbit: 1526 x 1683 km, 47.3° (Epoch: 19 July)

Event Time Altitude Azimuth Distance (km) Brightness Sun altitude
Rises 04:26:17 0° 228° (SW) 4,753 10.9 3.3°
Reaches altitude 10° 04:29:28 10° 223° (SW) 3,751 10.4 3.7°
Maximum altitude 04:38:31 53° 151° (SSE) 1,836 9.6 5.0°
Drops below altitude 10° 04:47:25 10° 78° (ENE) 3,697 12.8 6.3°
Sets 04:50:31 0° 74° (ENE) 4,681 13.6 6.7°
